Location: Bu�n Treun
(12.1333°N, 108.3167°E)
Time: 23:55:47
(UTC+00:00)

FALCON 9 DEB - Pass Details

Date: 13 July 2020
Orbit: 429 x 440 km, 53.0° (Epoch: 03 August)

Event Time Altitude Azimuth Distance (km) Brightness Sun altitude
Exits shadow 21:56:34 11° 242° (WSW) 1,499 5.2 -8.2°
Maximum altitude 21:59:36 32° 307° (NW) 761 4.1 -7.5°
Drops below altitude 10° 22:02:45 10° 12° (NNE) 1,534 6.4 -6.8°
Sets 22:04:59 0° 23° (NNE) 2,399 7.7 -6.3°
